Weather History for Volk, WI

Change the Weather History Date:

Wednesday, August 29, 2012

  Actual Average Record
Temperature  
Mean Temperature 72 °F -  
Max Temperature 86 °F 76 °F 89 °F (2010)
Min Temperature 58 °F 57 °F 44 °F (2011)
Cooling Degree Days 7    
Growing Degree Days 22 (Base 50)    
Moisture  
Dew Point 62 °F    
Average Humidity 89    
Maximum Humidity 100    
Minimum Humidity 51    
Precipitation  
Precipitation 0.00 in - - ()
Sea Level Pressure  
Sea Level Pressure 30.03 in    
Wind  
Wind Speed 5 mph (SE)    
Max Wind Speed 13 mph    
Max Gust Speed -    
Visibility 5 miles    
Events      
Averages and records for this station are not official NWS values.
T = Trace of Precipitation, MM = Missing Value Source: NWS Daily Summary

Daily Weather History Graph

Daily Weather History Graph

Search for Another Location

Airport:

Trip Planner

Search our weather history database for the weather conditions in past years. The results will help you decide how hot, cold, wet, or windy it might be!

Date:

Astronomy

Aug. 29, 2012 Rise Set
Actual Time 6:21 AM CDT 7:41 PM CDT
Civil Twilight 5:51 AM CDT 8:11 PM CDT
Nautical Twilight 5:15 AM CDT 8:46 PM CDT
Astronomical Twilight 4:37 AM CDT 9:24 PM CDT
Moon 6:22 PM CDT (8/29) 4:14 AM CDT (8/29)
Length of Visible Light 14h 19m
Length of Day
13h 19m
Waxing Gibbous, 96% of the Moon is Illuminated
Aug 29
Waxing Gibbous
Aug 31
Full
Sep 8
Last Quarter
Sep 15
New
Sep 22
First Quarter

Hourly Weather History & Observations

Time (CDT) Temp. Heat Index Dew Point Humidity Pressure Visibility Wind Dir Wind Speed Gust Speed Precip Events Conditions
12:03 AM 60.8 °F - 60.8 °F 100% 30.05 in 2.5 mi East 4.6 mph - N/A   Clear
12:05 AM 60.8 °F - 60.8 °F 100% 30.05 in 2.0 mi ESE 4.6 mph - N/A   Clear
12:09 AM 60.8 °F - 59.0 °F 94% 30.05 in 1.8 mi ESE 3.5 mph - N/A   Clear
12:10 AM 59.0 °F - 59.0 °F 100% 30.05 in 1.5 mi ESE 3.5 mph - N/A   Clear
12:15 AM 60.8 °F - 60.8 °F 100% 30.06 in 1.2 mi ESE 3.5 mph - N/A   Clear
12:16 AM 60.8 °F - 60.8 °F 100% 30.05 in 1.0 mi ESE 3.5 mph - N/A   Clear
12:24 AM 60.8 °F - 60.8 °F 100% 30.06 in 1.2 mi East 4.6 mph - N/A   Clear
12:25 AM 60.8 °F - 60.8 °F 100% 30.06 in 1.5 mi East 4.6 mph - N/A   Clear
12:26 AM 60.8 °F - 60.8 °F 100% 30.06 in 2.0 mi East 4.6 mph - N/A   Clear
12:27 AM 60.8 °F - 60.8 °F 100% 30.06 in 2.5 mi East 4.6 mph - N/A   Clear
12:28 AM 60.8 °F - 60.8 °F 100% 30.06 in 3.0 mi East 4.6 mph - N/A   Clear
12:55 AM 60.6 °F - 60.6 °F 100% 30.06 in 10.0 mi Calm Calm - N/A   Clear
1:08 AM 60.8 °F - 60.8 °F 100% 30.06 in 2.5 mi East 4.6 mph - N/A   Clear
1:10 AM 60.8 °F - 60.8 °F 100% 30.06 in 2.0 mi East 5.8 mph - N/A   Clear
1:11 AM 60.8 °F - 60.8 °F 100% 30.06 in 1.8 mi East 5.8 mph - N/A   Clear
1:13 AM 60.8 °F - 60.8 °F 100% 30.06 in 1.5 mi East 5.8 mph - N/A   Clear
1:15 AM 60.8 °F - 60.8 °F 100% 30.06 in 1.2 mi ESE 5.8 mph - N/A   Clear
1:17 AM 60.8 °F - 60.8 °F 100% 30.06 in 1.0 mi East 8.1 mph - N/A   Clear
1:19 AM 60.8 °F - 60.8 °F 100% 30.06 in 0.8 mi ESE 4.6 mph - N/A   Clear
1:25 AM 60.8 °F - 60.8 °F 100% 30.06 in 1.0 mi ESE 5.8 mph - N/A   Clear
1:27 AM 60.8 °F - 60.8 °F 100% 30.05 in 1.5 mi ESE 4.6 mph - N/A   Clear
1:28 AM 60.8 °F - 60.8 °F 100% 30.05 in 1.8 mi ESE 4.6 mph - N/A   Clear
1:29 AM 60.8 °F - 60.8 °F 100% 30.05 in 2.5 mi SE 4.6 mph - N/A   Clear
1:30 AM 60.8 °F - 60.8 °F 100% 30.05 in 4.0 mi SE 4.6 mph - N/A   Clear
1:52 AM 59.0 °F - 59.0 °F 100% 30.05 in 2.5 mi ESE 4.6 mph - N/A   Clear
1:53 AM 59.0 °F - 59.0 °F 100% 30.05 in 2.0 mi SE 4.6 mph - N/A   Clear
1:55 AM 59.5 °F - 59.5 °F 100% 30.05 in 1.8 mi SE 4.6 mph - N/A   Clear
1:58 AM 59.0 °F - 59.0 °F 100% 30.05 in 2.0 mi SE 4.6 mph - N/A   Clear
2:00 AM 59.0 °F - 59.0 °F 100% 30.05 in 2.5 mi SE 4.6 mph - N/A   Clear
2:01 AM 59.0 °F - 59.0 °F 100% 30.05 in 3.0 mi SE 3.5 mph - N/A   Clear
2:32 AM 59.0 °F - 59.0 °F 100% 30.05 in 2.5 mi ESE 3.5 mph - N/A   Clear
2:34 AM 59.0 °F - 59.0 °F 100% 30.05 in 2.0 mi Calm Calm - N/A   Clear
2:41 AM 59.0 °F - 59.0 °F 100% 30.05 in 2.5 mi SE 3.5 mph - N/A   Clear
2:43 AM 59.0 °F - 59.0 °F 100% 30.05 in 3.0 mi SE 3.5 mph - N/A   Clear
2:55 AM 58.8 °F - 58.8 °F 100% 30.05 in 10.0 mi SE 4.6 mph - N/A   Clear
3:55 AM 58.8 °F - 58.6 °F 99% 30.05 in 10.0 mi ESE 3.5 mph - N/A   Clear
4:55 AM 59.7 °F - 59.4 °F 99% 30.05 in 10.0 mi ESE 4.6 mph - N/A   Clear
5:55 AM 59.2 °F - 58.8 °F 99% 30.05 in 10.0 mi East 5.8 mph - N/A   Clear
6:55 AM 60.8 °F - 59.0 °F 94% 30.06 in 10.0 mi SE 3.5 mph - N/A   Mostly Cloudy
7:55 AM 64.4 °F - 60.8 °F 88% 30.06 in 10.0 mi SE 4.6 mph - N/A   Partly Cloudy
8:55 AM 69.8 °F - 62.6 °F 78% 30.05 in 10.0 mi SE 5.8 mph - N/A   Clear
9:55 AM 73.4 °F - 62.6 °F 69% 30.06 in 10.0 mi SSE 9.2 mph - N/A   Clear
10:55 AM 78.8 °F - 64.4 °F 61% 30.05 in 10.0 mi SE 6.9 mph - N/A   Partly Cloudy
11:55 AM 80.6 °F 82.3 °F 64.4 °F 58% 30.04 in 10.0 mi SE 10.4 mph - N/A   Partly Cloudy
12:55 PM 82.4 °F 84.6 °F 66.2 °F 58% 30.01 in 10.0 mi SSE 10.4 mph - N/A   Clear
1:55 PM 84.2 °F 86.6 °F 66.2 °F 55% 29.99 in 10.0 mi South 8.1 mph - N/A   Clear
2:55 PM 86.0 °F 88.2 °F 66.2 °F 51% 29.97 in 10.0 mi SSE 11.5 mph - N/A   Clear
3:55 PM 86.0 °F 89.4 °F 68.0 °F 55% 29.95 in 10.0 mi SE 10.4 mph - N/A   Clear
4:55 PM 86.0 °F 88.2 °F 66.2 °F 51% 29.93 in 10.0 mi South 12.7 mph - N/A   Clear
5:55 PM 84.2 °F 86.6 °F 66.2 °F 55% 29.93 in 10.0 mi SSE 10.4 mph - N/A   Clear
6:55 PM 82.4 °F 85.4 °F 68.0 °F 62% 29.94 in 10.0 mi SE 4.6 mph - N/A   Clear
7:55 PM 73.4 °F - 66.2 °F 78% 29.93 in 10.0 mi ESE 3.5 mph - N/A   Clear
8:55 PM 75.2 °F - 66.2 °F 73% 29.94 in 10.0 mi Calm Calm - N/A   Clear
9:55 PM 73.4 °F - 66.2 °F 78% 29.93 in 10.0 mi SSE 4.6 mph - N/A   Clear
10:55 PM 75.2 °F - 66.2 °F 73% 29.92 in 10.0 mi South 8.1 mph - N/A   Clear
11:55 PM 75.2 °F - 64.4 °F 69% 29.92 in 10.0 mi South 10.4 mph - N/A   Clear